Date,TemperatureHighF,TemperatureAvgF,TemperatureLowF,DewpointHighF,DewpointAvgF,DewpointLowF,HumidityHigh,HumidityAvg,HumidityLow,PressureMaxIn,PressureMinIn,WindSpeedMaxMPH,WindSpeedAvgMPH,GustSpeedMaxMPH,PrecipitationSumIn
2013-1-1,42,38,31,33,30,19,76,72,61,29.93,29.78,6,3,17,0.00
2013-1-2,33,29,25,19,17,15,66,59,51,30.12,29.91,8,3,24,0.00
2013-1-3,34,29,24,21,18,15,71,61,47,30.13,30.02,5,3,14,0.00
2013-1-4,39,35,31,25,23,20,65,61,56,30.05,29.93,8,4,21,0.00
2013-1-5,41,35,31,26,24,21,74,62,53,30.26,29.99,7,3,20,0.00
2013-1-6,48,40,32,38,32,26,99,74,52,30.14,29.91,6,2,14,0.06
2013-1-7,46,41,34,33,30,27,77,67,53,30.32,30.00,7,3,17,0.00
2013-1-8,49,39,30,37,33,27,92,77,61,30.34,30.27,5,1,14,0.00
2013-1-9,50,43,31,43,38,31,100,85,72,30.30,30.09,5,2,17,0.00
2013-1-10,50,44,40,35,30,28,64,57,50,30.45,30.22,8,4,20,0.00
2013-1-11,47,43,38,46,38,28,100,83,60,30.43,29.99,5,2,14,0.32
2013-1-12,53,46,42,53,46,42,100,99,99,30.08,29.99,3,1,11,0.01
2013-1-13,51,47,43,51,47,43,99,99,99,30.06,29.90,3,1,10,0.01
2013-1-14,55,52,41,54,49,38,99,90,66,30.19,29.85,6,3,17,0.19
2013-1-15,41,38,34,41,34,31,99,87,77,30.26,30.11,5,2,12,0.26
2013-1-16,38,35,33,38,35,33,99,99,99,30.08,29.72,4,2,14,0.48
2013-1-17,42,40,38,40,33,31,99,76,68,30.01,29.86,8,3,20,0.01
2013-1-18,37,31,28,32,17,11,90,57,44,30.40,29.91,13,5,27,0.00
2013-1-19,51,40,28,34,28,15,83,64,49,30.32,29.84,7,4,21,0.00
2013-1-20,55,44,31,36,26,11,77,51,29,29.97,29.67,10,6,30,0.00
2013-1-21,35,29,25,28,15,10,99,57,44,30.01,29.76,9,3,51,0.00
2013-1-22,25,18,13,12,0,-5,61,44,35,30.17,29.79,13,7,27,0.00
2013-1-23,19,16,12,5,0,-5,67,51,43,30.20,30.09,7,3,21,0.00
2013-1-24,24,20,15,6,2,-1,65,47,33,30.37,30.03,12,5,27,0.00
2013-1-25,24,18,14,16,7,-2,95,64,43,30.37,29.98,12,2,18,0.00
2013-1-26,27,21,14,16,13,10,100,70,52,30.32,29.97,8,4,20,0.00
2013-1-27,34,27,17,18,15,10,77,62,49,30.48,30.32,7,2,16,0.00
2013-1-28,37,33,27,37,31,18,100,92,67,30.41,29.94,5,2,14,0.13
2013-1-29,52,45,36,50,44,36,100,98,90,30.06,29.93,4,1,9,0.01
2013-1-30,68,57,43,65,57,42,99,98,91,29.94,29.25,8,4,23,0.35
2013-1-31,62,44,29,61,33,12,99,67,42,29.76,29.01,13,9,37,1.10
2013-2-1,30,27,22,24,11,5,95,51,39,30.19,29.74,12,6,28,0.00
2013-2-2,30,25,17,25,12,4,97,59,40,30.23,29.94,7,3,19,0.00
2013-2-3,31,27,24,28,24,20,100,88,72,29.94,29.72,9,2,27,0.02
2013-2-4,31,26,21,24,14,11,80,59,50,29.95,29.78,9,4,30,0.00
2013-2-5,34,32,28,34,30,24,100,95,83,29.86,29.79,3,1,8,0.00
2013-2-6,40,34,29,32,27,20,99,76,54,30.27,29.83,8,3,24,0.01
2013-2-7,36,31,24,27,19,14,84,62,49,30.40,30.18,8,3,17,0.00
2013-2-8,38,35,32,38,34,27,100,98,75,30.16,29.59,8,6,24,0.25
2013-2-9,33,29,24,23,18,11,95,66,53,30.27,29.91,13,9,30,0.01
2013-2-10,43,37,20,25,18,13,73,47,34,30.40,30.22,4,2,9,0.00
2013-2-11,50,42,34,50,41,26,99,97,72,30.22,29.58,9,2,17,0.34
2013-2-12,47,42,34,34,29,26,74,60,50,29.90,29.70,9,5,25,0.00
2013-2-13,45,37,28,35,30,25,100,76,56,29.88,29.59,4,2,11,0.01
2013-2-14,48,39,33,38,34,30,100,83,60,29.93,29.64,4,2,11,0.14
2013-2-15,59,46,34,43,37,29,100,72,47,29.93,29.82,8,2,21,0.00
2013-2-16,38,34,30,36,29,16,99,82,55,29.90,29.68,8,4,21,0.05
2013-2-17,30,27,21,16,9,2,61,46,38,29.99,29.65,14,9,34,0.02
2013-2-18,37,29,20,17,10,3,58,46,36,30.23,30.00,12,5,25,0.01
2013-2-19,45,40,32,44,34,16,99,81,51,30.09,29.62,7,4,22,0.22
2013-2-20,36,29,25,31,14,10,83,54,45,29.96,29.70,12,7,29,0.02
2013-2-21,35,30,23,18,15,10,64,55,47,30.21,29.95,12,7,31,0.00
2013-2-22,38,32,23,35,24,15,100,72,62,30.31,30.16,5,3,14,0.00
2013-2-23,46,41,35,46,41,35,99,99,99,30.16,29.71,7,3,16,0.12
2013-2-24,45,39,32,42,34,22,99,83,57,29.95,29.68,13,5,21,0.02
2013-2-25,45,38,31,31,27,22,75,65,55,30.14,29.95,8,3,16,0.00
2013-2-26,45,38,29,38,33,26,100,83,67,30.16,29.68,12,6,30,0.54
2013-2-27,50,46,38,48,43,38,99,91,73,29.64,29.41,13,4,22,0.24
2013-2-28,46,43,37,39,34,28,90,73,51,29.58,29.49,6,3,17,0.00
2013-3-1,44,40,35,34,31,28,91,72,59,29.73,29.56,9,5,22,0.00
2013-3-2,40,36,32,28,24,22,74,64,55,29.72,29.63,10,6,24,0.00
2013-3-3,37,33,27,23,20,17,72,59,51,29.71,29.63,11,6,21,0.00
2013-3-4,40,34,29,23,21,17,68,57,49,29.86,29.71,11,8,27,0.01
2013-3-5,49,40,31,30,27,23,76,61,48,29.94,29.85,10,4,18,0.00
2013-3-6,41,38,35,40,36,30,100,91,78,29.85,29.65,14,10,34,0.71
2013-3-7,47,40,36,32,30,27,87,65,53,30.00,29.83,12,8,24,0.00
2013-3-8,44,36,30,36,31,27,99,83,64,30.13,29.95,12,9,29,0.01
2013-3-9,62,50,32,29,24,16,69,38,23,30.22,30.13,9,4,17,0.00
2013-3-10,60,46,34,41,32,17,94,61,35,30.28,30.17,6,2,15,0.00
2013-3-11,61,49,39,53,46,38,100,89,57,30.21,29.97,6,3,14,0.00
2013-3-12,59,53,43,59,52,37,100,95,78,29.96,29.59,10,6,27,1.31
2013-3-13,49,42,36,37,31,22,79,63,46,29.86,29.75,10,4,20,0.00
2013-3-14,41,36,30,23,17,12,64,46,35,29.92,29.83,13,7,33,0.04
2013-3-15,53,41,29,34,23,12,57,48,40,29.93,29.65,8,4,22,0.00
2013-3-16,48,38,33,34,31,24,100,79,55,29.83,29.65,6,3,13,0.09
2013-3-17,40,34,30,34,25,20,100,70,54,30.21,29.83,8,4,21,0.05
2013-3-18,42,34,30,36,26,14,99,73,50,30.28,29.82,9,6,23,0.59
2013-3-19,52,42,36,42,34,22,99,78,39,29.80,29.61,12,5,26,0.21
2013-3-20,49,41,33,23,20,18,62,44,31,29.84,29.69,10,5,23,0.00
2013-3-21,40,34,29,31,20,11,97,60,39,29.72,29.57,10,5,23,0.00
2013-3-22,42,35,28,23,21,12,69,56,46,29.84,29.69,9,6,26,0.00
2013-3-23,47,39,31,24,22,20,65,51,38,29.87,29.77,9,5,24,0.00
2013-3-24,47,40,31,28,23,20,67,50,38,29.89,29.59,8,3,19,0.00
2013-3-25,38,36,34,36,33,26,99,89,62,29.60,29.38,7,4,14,0.26
2013-3-26,51,42,35,39,35,29,99,77,45,29.81,29.54,7,4,20,0.01
2013-3-27,51,44,37,36,32,28,89,64,42,29.94,29.82,10,5,25,0.00
2013-3-28,48,43,36,32,30,28,76,61,47,30.06,29.91,9,5,22,0.00
2013-3-29,52,48,38,33,31,28,67,53,44,30.09,30.00,7,4,19,0.00
2013-3-30,58,48,37,33,30,27,75,51,32,30.11,30.00,6,2,14,0.00
2013-3-31,59,49,40,49,40,31,99,72,44,30.05,29.62,8,3,21,0.18
2013-4-1,63,51,41,49,39,16,99,66,34,29.85,29.57,13,5,37,0.00
2013-4-2,45,39,34,17,15,13,45,37,29,30.03,29.86,10,6,32,0.00
2013-4-3,47,40,31,19,15,11,49,36,27,30.23,30.03,10,5,28,0.00
2013-4-4,54,42,31,29,21,11,58,43,32,30.33,30.00,6,3,16,0.00
2013-4-5,63,51,38,40,31,22,100,52,26,30.00,29.66,10,4,27,0.01
2013-4-6,55,44,35,30,22,16,60,41,26,30.23,29.93,7,4,20,0.00
2013-4-7,65,53,39,47,40,29,83,63,49,30.22,29.92,8,4,23,0.00
2013-4-8,80,66,49,56,52,46,89,62,43,30.00,29.88,5,2,15,0.00
2013-4-9,84,74,60,59,56,54,86,57,37,29.93,29.83,9,4,21,0.00
2013-4-10,90,77,62,66,62,56,100,61,45,29.84,29.66,13,4,31,0.48
2013-4-11,71,62,49,68,60,48,100,93,82,29.86,29.70,11,4,23,0.01
2013-4-12,50,45,43,49,45,42,100,99,99,29.85,29.59,10,5,24,1.06
2013-4-13,61,53,42,50,42,39,99,68,48,29.88,29.67,6,3,21,0.00
2013-4-14,62,54,42,42,37,31,95,56,39,30.07,29.89,9,4,25,0.00
2013-4-15,60,52,46,47,41,34,81,66,52,30.26,30.08,8,5,15,0.00
2013-4-16,74,62,48,63,56,45,100,80,66,30.25,30.03,7,4,21,0.00
2013-4-17,73,63,57,62,53,45,100,73,44,30.19,30.00,7,2,17,0.00
2013-4-18,63,58,52,62,55,42,100,89,61,30.22,29.98,8,4,17,0.00
2013-4-19,80,69,55,72,66,55,100,93,75,29.96,29.54,11,5,25,0.46
2013-4-20,60,52,47,54,37,27,100,58,39,30.24,29.65,10,5,28,0.17
2013-4-21,56,46,36,32,27,21,61,47,35,30.52,30.24,9,4,20,0.00
2013-4-22,53,46,37,42,36,31,89,67,54,30.52,30.36,10,5,25,0.00
2013-4-23,51,47,42,47,42,36,92,83,72,30.35,30.04,6,3,16,0.00
2013-4-24,73,60,41,61,54,41,100,82,66,30.04,29.71,6,3,22,0.00
2013-4-25,65,55,44,61,35,30,94,49,30,30.19,29.81,17,5,28,0.04
2013-4-26,65,57,46,40,35,31,68,46,31,30.33,30.20,6,3,17,0.00
2013-4-27,71,59,46,39,36,32,61,43,29,30.35,30.19,5,2,13,0.00
2013-4-28,73,61,46,48,42,33,81,52,34,30.22,30.10,5,2,15,0.00
2013-4-29,58,55,52,58,54,44,99,97,61,30.12,30.03,6,4,14,0.52
2013-4-30,70,59,51,56,48,34,99,71,36,30.23,30.07,8,5,23,0.02
2013-5-1,69,59,43,47,41,35,80,53,31,30.38,30.23,8,4,22,0.00
2013-5-2,75,60,43,50,46,41,100,63,35,30.37,30.24,6,2,14,0.00
2013-5-3,65,58,50,46,43,40,86,61,41,30.34,30.26,9,4,22,0.00
2013-5-4,70,58,44,50,46,42,99,67,40,30.28,30.12,8,3,17,0.00
2013-5-5,65,53,43,47,44,41,99,72,51,30.19,30.10,6,4,17,0.00
2013-5-6,69,58,46,59,54,45,100,87,66,30.15,30.03,7,3,16,0.00
2013-5-7,70,62,53,69,60,53,100,96,83,30.06,29.94,7,4,19,0.21
2013-5-8,77,66,60,70,62,58,99,89,60,29.96,29.83,5,3,14,0.20
2013-5-9,72,64,57,64,60,56,99,87,67,29.88,29.82,5,2,14,0.30
2013-5-10,85,73,57,67,63,57,99,73,47,29.92,29.80,7,2,17,0.28
2013-5-11,78,68,63,74,66,62,99,96,74,29.84,29.61,5,2,15,0.44
2013-5-12,65,60,52,63,43,30,100,57,35,29.88,29.62,10,5,27,0.08
2013-5-13,55,51,45,36,31,26,65,47,35,30.03,29.89,8,4,21,0.00
2013-5-14,62,52,40,36,33,31,82,50,34,30.08,29.95,7,3,19,0.00
2013-5-15,75,66,53,64,56,38,93,72,50,29.99,29.62,4,2,17,0.00
2013-5-16,84,72,59,70,66,59,100,83,62,29.76,29.62,5,2,14,0.00
2013-5-17,76,68,60,60,49,46,74,53,40,30.10,29.77,6,3,18,0.00
2013-5-18,69,62,57,61,54,46,99,77,56,30.20,30.10,6,2,15,0.20
2013-5-19,63,60,57,62,60,57,99,99,99,30.18,30.06,6,3,12,0.33
2013-5-20,81,70,60,77,69,60,99,94,78,30.07,29.89,4,1,11,0.01
2013-5-21,85,77,67,77,74,67,100,91,76,29.90,29.76,5,2,14,0.00
2013-5-22,90,79,69,81,75,69,100,90,70,29.82,29.73,5,2,17,0.00
2013-5-23,83,74,68,76,73,67,100,95,73,29.81,29.66,7,3,20,0.22
2013-5-24,66,55,46,65,53,42,99,93,74,29.94,29.62,12,6,30,0.51
2013-5-25,62,54,46,46,41,37,94,64,42,29.99,29.89,15,7,22,0.00
2013-5-26,70,61,50,43,40,37,64,48,33,30.12,29.95,9,5,24,0.00
2013-5-27,75,64,45,49,45,40,93,54,35,30.19,30.07,4,2,14,0.00
2013-5-28,66,62,55,66,60,49,100,93,63,30.12,30.01,3,1,10,0.33
2013-5-29,91,78,60,78,70,60,99,80,55,30.02,29.93,5,2,15,0.01
2013-5-30,93,84,70,77,72,69,99,70,49,30.06,29.99,5,2,14,0.00
2013-5-31,95,85,71,78,73,68,100,70,47,30.05,29.92,5,2,14,0.00
2013-6-1,94,84,71,78,74,71,99,74,52,29.94,29.82,6,3,18,0.00
2013-6-2,89,81,73,78,75,71,99,83,68,29.83,29.70,8,4,14,0.00
2013-6-3,80,73,69,77,73,69,100,98,86,29.77,29.71,5,1,11,0.72
2013-6-4,76,68,57,68,53,49,100,60,44,30.02,29.79,8,3,17,0.00
2013-6-5,82,70,54,59,52,47,87,55,38,30.12,30.00,5,2,14,0.00
2013-6-6,75,68,58,68,61,56,99,81,56,30.05,29.88,7,4,17,0.14
2013-6-7,68,65,61,68,65,61,99,99,99,29.88,29.50,8,4,24,2.30
2013-6-8,78,70,61,73,68,60,100,92,75,29.98,29.50,7,3,16,0.15
2013-6-9,85,74,61,71,66,61,100,78,55,30.11,29.99,4,1,14,0.00
2013-6-10,74,71,66,74,71,66,100,99,90,30.06,29.69,5,3,19,1.44
2013-6-11,82,76,68,74,71,66,99,85,71,29.69,29.59,6,4,21,0.06
2013-6-12,83,76,69,68,66,64,92,72,54,29.75,29.68,7,3,21,0.00
2013-6-13,86,72,62,79,69,60,100,89,73,29.74,29.30,7,3,17,0.28
2013-6-14,78,65,55,64,59,55,100,82,57,29.83,29.43,8,4,19,0.07
2013-6-15,82,72,61,65,62,59,100,72,50,29.95,29.84,8,3,17,0.00
2013-6-16,84,74,62,74,67,58,100,81,56,29.92,29.73,7,2,21,0.01
2013-6-17,88,78,68,76,72,68,100,83,64,29.85,29.75,5,2,14,0.00
2013-6-18,80,71,66,75,70,66,100,96,80,29.82,29.72,4,1,10,0.58
2013-6-19,79,70,60,65,60,55,99,72,47,30.08,29.78,6,3,17,0.01
2013-6-20,82,72,59,66,61,54,99,69,51,30.20,30.09,5,2,14,0.00
2013-6-21,86,74,60,66,60,53,89,61,47,30.23,30.15,4,2,12,0.00
2013-6-22,88,77,61,74,68,59,100,75,56,30.18,30.03,3,2,17,0.00
2013-6-23,88,79,66,81,75,65,100,89,69,30.12,29.96,4,2,13,0.00
2013-6-24,93,80,73,82,76,71,99,86,63,30.00,29.90,6,2,20,0.04
2013-6-25,93,81,69,81,75,69,100,86,60,29.93,29.77,7,2,27,0.15
2013-6-26,93,80,69,81,75,69,100,85,63,29.79,29.69,5,2,14,0.21
2013-6-27,91,80,71,81,76,71,100,90,69,29.72,29.47,10,2,22,0.35
2013-6-28,88,77,70,79,74,69,100,93,72,29.49,29.40,5,2,12,0.11
2013-6-29,90,80,69,76,72,69,100,77,56,29.60,29.41,5,2,12,0.01
2013-6-30,85,78,73,82,77,73,100,98,88,29.79,29.62,4,2,9,0.26
2013-7-1,80,77,73,80,76,73,99,99,99,29.93,29.78,4,2,14,0.21
2013-7-2,87,79,74,82,77,74,99,96,83,30.10,29.93,6,2,17,0.02
2013-7-3,88,78,72,84,78,72,100,98,86,30.16,30.08,4,2,12,0.12
2013-7-4,92,82,75,83,79,75,99,89,71,30.17,30.08,6,2,17,0.01
2013-7-5,94,84,74,84,80,74,100,87,66,30.14,30.03,5,3,17,0.00
2013-7-6,96,86,77,83,80,77,100,85,62,30.08,29.96,4,2,12,0.00
2013-7-7,95,85,73,85,80,73,100,86,65,30.00,29.87,8,2,31,0.07
2013-7-8,87,78,71,80,75,71,100,91,72,29.99,29.93,5,2,59,0.00
2013-7-9,89,81,73,80,78,73,100,90,71,29.99,29.91,5,2,15,0.00
2013-7-10,90,83,75,83,80,75,99,90,72,29.93,29.75,6,3,19,0.02
2013-7-11,86,80,75,81,76,70,100,89,72,29.83,29.73,4,2,13,0.01
2013-7-12,77,73,69,76,71,68,100,94,75,29.95,29.83,8,3,21,0.83
2013-7-13,88,78,69,83,76,69,99,96,81,30.20,29.95,7,2,11,0.01
2013-7-14,94,84,76,83,79,76,100,85,64,30.26,30.17,4,2,13,0.00
2013-7-15,95,86,76,82,80,76,100,83,65,30.20,30.07,4,2,12,0.00
2013-7-16,94,86,78,82,78,74,100,77,58,30.13,30.06,6,3,17,0.00
2013-7-17,96,87,76,80,78,76,100,76,56,30.12,30.00,4,2,12,0.00
2013-7-18,98,90,80,85,82,78,97,80,61,30.01,29.88,5,2,12,0.00
2013-7-19,98,90,82,88,85,81,99,84,67,29.91,29.75,6,3,17,0.00
2013-7-20,94,86,76,83,79,75,99,81,68,29.77,29.68,8,3,19,0.08
2013-7-21,90,81,75,81,78,74,100,89,60,29.85,29.76,6,2,15,0.00
2013-7-22,91,80,74,83,78,74,99,94,73,29.85,29.69,4,2,12,0.01
2013-7-23,87,80,72,82,77,71,99,92,77,29.68,29.50,6,2,14,0.50
2013-7-24,80,76,66,76,71,59,100,83,69,29.85,29.56,7,3,15,0.00
2013-7-25,73,67,60,65,62,57,92,83,75,29.96,29.85,5,3,15,0.00
2013-7-26,83,74,63,67,65,63,100,76,56,29.98,29.93,6,3,14,0.00
2013-7-27,88,78,66,77,71,66,99,80,61,29.97,29.84,4,2,16,0.00
2013-7-28,79,74,69,77,72,69,99,97,88,29.89,29.84,6,1,9,0.18
2013-7-29,83,75,68,72,66,61,100,76,50,30.04,29.87,6,3,17,0.06
2013-7-30,82,74,64,66,64,61,99,71,55,30.12,30.03,5,2,17,0.00
2013-7-31,83,76,63,72,67,62,99,77,57,30.08,29.94,3,1,9,0.00
2013-8-1,74,71,68,74,70,68,100,97,85,29.95,29.73,5,1,13,0.76
2013-8-2,86,77,69,76,71,68,99,83,59,29.85,29.72,5,2,17,0.00
2013-8-3,79,73,68,74,72,68,100,95,80,29.86,29.80,5,2,16,0.01
2013-8-4,79,73,65,68,64,61,100,76,56,29.91,29.78,8,4,21,0.00
2013-8-5,78,71,61,62,59,53,96,68,46,30.01,29.92,6,2,20,0.00
2013-8-6,80,70,59,70,66,59,100,86,61,30.02,29.96,4,2,12,0.00
2013-8-7,76,72,68,75,72,67,100,98,91,30.04,29.95,5,2,14,0.01
2013-8-8,87,79,70,84,78,70,100,96,85,29.96,29.89,4,2,16,0.31
2013-8-9,86,80,75,86,80,75,100,98,91,29.92,29.73,6,2,17,0.05
2013-8-10,85,78,72,78,73,69,100,85,62,29.96,29.80,5,2,13,0.01
2013-8-11,87,78,66,74,68,62,100,74,55,30.05,29.93,4,2,11,0.00
2013-8-12,86,78,70,78,74,70,99,89,62,29.95,29.84,4,1,11,0.00
2013-8-13,83,75,66,77,73,65,99,95,79,29.83,29.63,9,2,27,1.29
2013-8-14,75,68,61,74,58,53,99,70,57,29.98,29.68,10,5,24,0.00
2013-8-15,78,68,56,62,58,54,99,73,48,30.09,29.99,5,2,14,0.00
2013-8-16,81,71,56,65,60,56,100,72,49,30.12,30.06,5,1,11,0.00
2013-8-17,84,74,60,68,63,60,99,71,49,30.19,30.13,4,2,12,0.00
2013-8-18,77,70,64,70,66,62,99,88,62,30.17,30.05,3,1,12,0.06
2013-8-19,77,72,63,73,68,63,100,90,70,30.07,29.97,4,2,10,0.00
2013-8-20,90,78,64,77,72,64,99,83,61,30.06,29.99,4,2,12,0.00
2013-8-21,89,80,67,78,73,67,100,81,54,30.10,29.98,4,2,12,0.00
2013-8-22,84,78,74,82,77,74,100,96,85,29.99,29.82,5,2,14,0.05
2013-8-23,76,73,68,74,70,66,100,90,74,30.00,29.82,6,2,12,0.00
2013-8-24,81,72,63,66,61,58,100,71,46,30.27,30.01,5,2,14,0.00
2013-8-25,83,72,58,66,61,58,100,71,47,30.34,30.18,4,2,11,0.00
2013-8-26,88,76,64,75,69,61,100,80,62,30.17,29.85,5,3,17,0.00
2013-8-27,88,80,72,76,74,71,100,81,61,29.85,29.77,6,3,16,0.00
2013-8-28,76,73,71,75,73,71,99,99,99,29.81,29.74,4,1,11,1.18
2013-8-29,83,75,70,78,74,70,100,95,81,29.94,29.77,5,2,11,0.00
2013-8-30,84,76,68,80,75,68,100,95,86,29.94,29.79,4,2,13,0.00
2013-8-31,88,80,71,83,78,71,100,94,81,29.81,29.70,4,2,14,0.00
2013-9-1,92,82,73,83,79,73,100,90,69,29.76,29.68,4,2,12,0.00
2013-9-2,85,78,72,82,77,72,100,98,89,29.71,29.63,3,1,9,0.71
2013-9-3,82,76,68,77,69,62,99,82,60,29.84,29.63,7,4,16,0.00
2013-9-4,81,72,62,66,64,62,100,76,54,29.97,29.83,8,3,16,0.00
2013-9-5,78,71,60,69,62,52,94,74,52,30.06,29.89,6,3,16,0.00
2013-9-6,73,64,53,54,50,45,88,63,38,30.18,30.07,6,2,12,0.00
2013-9-7,80,66,51,66,57,51,100,76,45,30.07,29.85,6,1,12,0.00
2013-9-8,82,73,63,73,66,51,100,81,55,30.00,29.77,7,3,18,0.00
2013-9-9,78,68,53,69,60,50,100,79,65,30.15,30.01,6,2,12,0.00
2013-9-10,89,79,68,82,77,68,100,93,80,30.10,29.98,4,2,12,0.00
2013-9-11,95,84,74,87,80,74,100,88,71,30.04,29.91,5,2,13,0.00
2013-9-12,89,79,71,84,77,71,100,94,79,29.90,29.63,10,2,30,0.24
2013-9-13,77,69,60,71,64,55,99,85,64,29.81,29.58,8,4,23,0.25
2013-9-14,64,59,51,55,52,51,100,80,67,30.08,29.82,8,4,24,0.00
2013-9-15,75,63,47,61,55,47,99,79,55,30.15,30.01,4,1,10,0.00
2013-9-16,70,64,58,65,60,55,100,91,72,30.17,29.96,7,2,13,0.08
2013-9-17,66,57,47,55,47,44,100,73,46,30.35,30.18,6,3,22,0.00
2013-9-18,72,60,46,55,51,46,100,74,49,30.27,30.11,4,1,13,0.00
2013-9-19,78,66,49,63,58,48,99,79,54,30.12,30.00,3,1,11,0.00
2013-9-20,81,69,54,68,63,54,100,81,56,30.01,29.89,3,1,11,0.00
2013-9-21,81,70,56,71,65,56,99,86,57,29.92,29.59,5,2,17,0.63
2013-9-22,68,63,54,63,55,49,99,78,58,29.85,29.60,8,4,20,0.28
2013-9-23,66,58,48,51,48,45,91,72,57,29.98,29.85,8,4,17,0.00
2013-9-24,71,59,45,56,51,45,100,79,57,30.00,29.83,5,3,16,0.00
2013-9-25,73,61,49,57,53,48,100,78,49,29.88,29.80,3,1,11,0.00
2013-9-26,73,62,52,64,58,51,100,87,66,30.01,29.85,3,1,9,0.00
2013-9-27,72,64,57,62,58,56,99,85,61,30.18,30.01,4,1,11,0.00
2013-9-28,73,65,55,62,57,55,100,79,56,30.24,30.15,4,2,13,0.00
2013-9-29,73,63,52,65,58,51,100,85,62,30.14,29.99,4,2,11,0.00
2013-9-30,74,62,51,61,56,51,100,83,59,30.00,29.91,4,1,10,0.00
2013-10-1,80,68,52,68,62,52,100,84,63,29.95,29.85,5,2,17,0.00
2013-10-2,84,73,58,70,67,58,100,83,64,29.95,29.87,6,2,15,0.00
2013-10-3,84,74,63,70,67,62,100,81,54,30.04,29.93,2,1,8,0.00
2013-10-4,88,76,64,75,71,63,100,85,64,29.99,29.89,4,1,12,0.00
2013-10-5,88,76,68,77,72,67,100,89,65,29.99,29.91,4,2,10,0.00
2013-10-6,83,72,66,79,72,66,100,98,86,29.97,29.87,6,2,11,0.15
2013-10-7,78,68,59,78,67,54,99,99,83,29.91,29.68,8,3,23,0.64
2013-10-8,67,58,50,55,53,50,100,82,61,30.22,29.93,9,2,20,0.00
2013-10-9,62,57,52,56,52,48,94,83,75,30.28,30.16,6,4,20,0.00
2013-10-10,61,56,52,61,56,52,99,98,87,30.16,29.92,7,4,21,0.50
2013-10-11,65,61,58,65,61,58,99,99,99,29.96,29.87,9,4,19,1.37
2013-10-12,71,65,61,64,59,50,100,81,65,30.14,29.94,15,5,26,0.00
2013-10-13,68,61,54,61,56,52,100,85,67,30.27,30.13,8,5,18,0.00
2013-10-14,69,61,49,58,55,49,99,84,67,30.26,30.16,4,2,9,0.00
2013-10-15,73,61,49,61,53,49,100,77,47,30.17,30.02,5,2,12,0.00
2013-10-16,70,62,54,66,61,54,100,97,86,30.02,29.83,2,0,7,0.00
2013-10-17,74,67,62,70,66,62,100,96,86,29.84,29.63,4,1,10,0.04
2013-10-18,66,59,49,65,51,47,99,76,57,29.92,29.65,8,3,21,0.02
2013-10-19,66,56,44,60,52,44,99,87,60,29.92,29.69,5,1,14,0.07
2013-10-20,62,54,46,55,44,41,99,71,47,30.00,29.72,7,3,22,0.01
2013-10-21,69,56,40,52,46,40,100,73,45,30.07,29.90,4,1,14,0.00
2013-10-22,66,57,50,58,51,37,99,83,61,29.90,29.70,5,2,14,0.00
2013-10-23,56,49,44,46,40,38,85,71,59,29.74,29.53,7,2,17,0.00
2013-10-24,52,46,41,40,35,31,87,67,46,29.97,29.71,8,4,23,0.00
2013-10-25,54,46,38,39,36,31,83,69,53,30.17,29.98,7,3,19,0.00
2013-10-26,57,48,35,39,36,32,93,66,47,30.17,29.83,7,3,25,0.01
2013-10-27,57,51,41,39,37,34,79,59,49,30.06,29.81,7,3,24,0.00
2013-10-28,63,50,35,46,40,35,100,72,50,30.22,30.06,5,1,12,0.00
2013-10-29,62,52,42,48,43,37,92,74,57,30.31,30.22,4,2,11,0.00
2013-10-30,59,52,44,59,52,44,99,99,94,30.26,30.10,2,0,8,0.01
2013-10-31,69,61,50,67,60,50,100,96,88,30.14,29.73,16,2,107,0.04
2013-11-1,71,65,56,70,64,56,99,95,75,29.71,29.50,9,3,34,0.28
2013-11-2,69,60,51,59,51,43,99,75,56,29.72,29.55,6,2,16,0.00
2013-11-3,53,46,35,46,36,22,93,68,45,30.38,29.72,9,5,25,0.00
2013-11-4,48,40,31,31,24,20,71,54,35,30.56,30.37,6,2,17,0.00
2013-11-5,59,50,36,48,42,30,95,76,62,30.55,30.39,5,1,11,0.00
2013-11-6,67,57,47,57,52,46,100,86,65,30.40,29.99,4,2,12,0.00
2013-11-7,61,55,46,61,54,39,99,95,74,29.97,29.72,9,4,23,0.04
2013-11-8,49,44,38,37,32,29,74,64,51,30.18,29.91,9,3,22,0.00
2013-11-9,52,44,33,39,33,29,86,67,49,30.24,29.92,5,2,14,0.00
2013-11-10,60,50,39,43,36,31,88,59,46,30.03,29.80,9,5,30,0.00
2013-11-11,57,49,41,41,35,30,71,58,49,30.16,29.90,12,4,21,0.00
2013-11-12,50,37,28,42,25,17,96,62,46,30.25,29.87,11,6,33,0.00
2013-11-13,40,33,27,23,18,14,68,54,41,30.33,30.24,9,4,23,0.00
2013-11-14,56,44,31,27,22,18,70,44,25,30.24,30.11,6,3,21,0.00
2013-11-15,61,47,36,39,35,27,83,63,42,30.18,30.08,2,1,8,0.00
2013-11-16,57,47,44,50,44,36,100,89,66,30.25,30.16,3,1,9,0.01
2013-11-17,67,60,51,63,58,51,100,96,84,30.17,29.69,5,2,15,0.00
2013-11-18,67,61,50,63,43,12,99,55,14,29.75,29.56,14,5,27,0.14
2013-11-19,50,43,35,32,27,23,62,53,47,30.27,29.76,12,6,24,0.01
2013-11-20,46,38,31,24,20,14,75,49,28,30.50,30.28,6,2,15,0.00
2013-11-21,54,46,31,45,35,18,82,67,47,30.50,30.30,4,1,11,0.00
2013-11-22,58,53,49,56,52,46,100,96,83,30.30,29.87,4,2,53,0.01
2013-11-23,53,41,30,53,29,17,99,62,48,30.01,29.88,14,7,30,0.01
2013-11-24,29,26,22,16,4,2,59,38,32,30.35,30.01,17,8,33,0.18
2013-11-25,35,29,22,21,15,7,67,57,46,30.44,30.26,5,2,9,0.00
2013-11-26,51,36,32,51,27,22,99,69,62,30.26,29.56,8,1,19,0.92
2013-11-27,62,41,32,61,39,22,99,93,66,29.77,29.32,12,7,29,2.17
2013-11-28,34,32,28,23,20,18,73,63,57,30.38,29.77,12,4,30,0.00
2013-11-29,40,32,25,27,24,20,95,72,54,30.53,30.38,8,2,13,0.00
2013-12-1,50,41,30,38,33,29,96,75,58,30.28,29.94,4,1,8,0.00
2013-12-2,51,43,39,40,36,32,84,75,59,29.94,29.79,2,0,6,0.00
2013-12-3,54,45,39,44,40,36,97,83,63,29.92,29.79,2,1,8,0.00
2013-12-4,54,47,37,50,44,36,100,87,77,30.02,29.92,3,1,8,0.00
2013-12-5,60,55,49,60,54,49,99,99,99,30.01,29.85,4,1,15,0.00
2013-12-6,62,47,36,62,47,36,99,99,99,30.06,29.79,8,4,22,0.71
2013-12-7,38,36,32,37,33,29,100,90,72,30.43,30.00,9,4,20,0.09
2013-12-8,32,28,26,29,24,20,99,88,71,30.50,30.25,5,2,12,0.00
2013-12-9,36,34,30,36,34,29,99,99,99,30.23,29.90,3,1,9,0.47
2013-12-10,34,32,30,34,32,30,99,99,99,30.08,29.83,3,1,11,0.02
2013-12-11,33,28,22,30,23,21,100,81,61,30.29,30.09,6,2,18,0.01
2013-12-12,27,24,21,23,17,10,100,78,53,30.30,30.11,8,3,23,0.00
2013-12-13,37,31,22,24,18,10,75,59,50,30.25,30.08,8,3,23,0.00
2013-12-14,32,30,27,32,28,23,100,91,75,30.33,29.61,7,3,22,0.07
2013-12-15,40,35,29,39,32,25,99,90,74,29.80,29.47,8,3,22,0.25
2013-12-16,32,27,23,26,15,12,82,61,48,30.14,29.79,10,3,20,0.00
2013-12-17,32,27,22,32,25,14,100,94,58,30.11,29.85,6,3,12,0.00
2013-12-18,37,31,23,27,24,23,99,78,61,30.11,29.85,7,3,24,0.00
2013-12-19,49,39,27,36,32,23,96,75,62,30.12,29.97,4,1,12,0.00
2013-12-20,54,48,39,51,40,34,100,75,58,30.01,29.90,4,1,14,0.00
2013-12-21,67,58,49,62,56,49,100,92,78,29.93,29.82,6,2,19,0.00
2013-12-22,67,63,60,66,63,60,99,99,99,29.89,29.75,9,4,28,0.12
2013-12-23,61,54,40,61,53,36,99,97,84,30.08,29.82,10,4,22,0.51
2013-12-24,40,34,26,36,24,15,86,67,57,30.30,30.04,10,6,23,0.00
2013-12-25,30,26,20,19,13,9,69,57,48,30.46,30.30,8,3,15,0.00
2013-12-26,41,32,24,32,27,19,93,80,65,30.32,30.09,7,2,19,0.00
2013-12-27,46,37,28,26,24,22,85,63,42,30.30,30.19,6,2,17,0.00
2013-12-28,58,45,31,38,33,25,94,65,44,30.21,30.01,5,2,17,0.00
2013-12-29,47,43,41,46,40,32,99,91,68,30.00,29.36,7,3,17,0.99
2013-12-30,44,39,28,43,34,18,99,81,66,30.08,29.66,9,4,22,0.00
2013-12-31,36,29,25,29,19,13,80,65,54,30.23,29.98,10,3,18,0.00
2014-1-1,40,32,24,28,22,14,77,67,57,30.32,30.11,5,2,14,0.00
2014-1-2,33,28,20,30,27,20,100,95,77,30.09,29.55,6,4,16,0.00